Regional Weather Roundup
Issued by NWS

Home | Current Version | Previous Version | Text Only | Print | Product List | Glossary On
Versions: 1 2 3 4 5 6 7 8 9 10 11 12 13 14 15 16 17 18 19 20 21 22 23 24 25 26 27 28 29 30 31 32 33 34 35 36 37 38 39 40 41 42 43 44 45 46 47 48 49 50
000
ASUS43 KLMK 252010
RWRKY
NATIONAL WEATHER SERVICE LOUISVILLE KY
300 PM EST TUE NOV 25 2014

NOTE "FAIR" INDICATES FEW OR NO CLOUDS BELOW 12,000 FEET
WITH NO SIGNIFICANT WEATHER AND/OR OBSTRUCTIONS TO VISIBILITY.

KYZ001>023-026-027-061>063-070>075-252100-
WESTERN AND SOUTH CENTRAL KENTUCKY

CITY           SKY/WX    TMP DP  RH WIND       PRES   REMARKS
PADUCAH        SUNNY     44  25  47 W7        30.14F
HENDERSON      MOSUNNY   41  27  56 N6        30.16R
OWENSBORO      MOSUNNY   42  29  60 NW12      30.16S
HOPKINSVILLE   MOSUNNY   46  25  44 NW8       30.13F
BOWLING GREEN  SUNNY     47  23  38 CALM      30.12F
GLASGOW        MOSUNNY   46  27  48 W5        30.12S
$$

KYZ024-025-028>034-038-045-046-053-252100-
NORTH CENTRAL KENTUCKY

CITY           SKY/WX    TMP DP  RH WIND       PRES   REMARKS
LOUISVILLE/SDF PTSUNNY   46  26  45 SW7       30.12S
LOUISVILLE/LOU SUNNY     45  26  47 VRB6      30.12F
FORT KNOX      SUNNY     45  28  51 W7        30.10F
$$

KYZ035>037-039>044-047>052-055>060-089>105-252100-
NORTHEAST KENTUCKY

CITY           SKY/WX    TMP DP  RH WIND       PRES   REMARKS
LEXINGTON      SUNNY     47  27  45 W8        30.09F
COVINGTON      PTSUNNY   44  27  51 W10       30.10S
FRANKFORT      SUNNY     45  25  45 NW6       30.09F
$$

KYZ054-064>069-076>088-106>120-252100-
SOUTHEAST KENTUCKY

CITY           SKY/WX    TMP DP  RH WIND       PRES   REMARKS
JACKSON        SUNNY     54  25  32 W6        30.06F
LONDON         SUNNY     54  24  31 W10       30.08S
SOMERSET       SUNNY     50  30  46 CALM      30.11S
MIDDLESBORO    SUNNY     57  27  31 W5        30.07S
MONTICELLO     PTCLDY    54  30  40 NW6       30.12S
$$



USA.gov is the U.S. government's official web portal to all federal, state and local government web resources and services.